Showing default

COLIBRI-S, 61746

Orbit data source: Space-Track

COLIBRI-S, 61746 is a payload satellite owned by SNIU (CIS) in SSO that was launched on Mon, 04 Nov 2024 UTC via a SOYUZ-2-1B launch vehicle from the Vostochny Cosmodrome (VOSTO). Payload-class satellites include a variety of spacecraft equipped with specific instruments for various scientific and technological missions. These include communications satellites like Starlink; space stations such as the ISS; scientific satellites like the Hubble; Earth observation satellites from companies like Planet Labs, Umbra, and HawkEye 360; GPS; miniature CubeSats for education and research; and military/defense satellites.

Not visible in the next 10 days
Identifier
61746, 2024-199M
Orbit
SSO
Country
Flag of CISCIS
Related business
Manufacturer
Geoskan
Mission
Operational Amateur Imaging
Bus & Motor
CUBESAT 3U, Unknown motor
Mass
3 kg wet, 3 kg dry
Launch date (UTC)
2024-11-04 (2 years ago)
Launch vehicle
SOYUZ-2-1B
Launch site
Vostochny Cosmodrome (VOSTO)
Object type
Payload
Rocket body
Debris
Shape & HBR
Box, 0.1 m
Radar Cross Section
0.035 m², Small (<0.1 m²)

Expand to show TLE details & history
Last TLE update: 7 hours ago

TLE from 7 hours ago
0 COLIBRI-S
1 61746U 24199M   26127.88905106  .00017429  00000-0  35717-3 0  9993
2 61746  97.3047   1.4172 0010548  72.7796 287.4607 15.46075123131189
Epoch: 2026-05-07T21:20Z
TLE epoch observation values (Epoch: 2026-05-07T21:20:14.011Z)
Latitude
-0.00005°
Longitude
175.63011°
Altitude
429.202 km
Speed
7.655 km/s
True Right ascension
00h 05m 40s
True Declination
0° 00' 00"
Sunlit
Object was in daylight at epoch
Visualization orbit readout
Latitude
Unknown
Longitude
Unknown
Altitude
Unknown
Speed
Unknown
Apparent Right ascension
Unknown
Apparent Declination
Unknown
Sunlit
N/A
Visualization observer readout
Local Sidereal Time
12:39:17
Azimuth
Unknown
Elevation
Unknown
Doppler factor
Unknown
Orbital elements
Apogee altitude
432.324 km
Perigee altitude
417.972 km
Semi-major axis
6,803.285 km
Eccentricity
0.00105
Inclination
97.3047°
RAAN
1.4172°
Arg. of periapsis
72.7796°
True anomaly
287.34535°
Mean anomaly
287.4607°
Eccentric anomaly
287.40303°
Mean motion
3.86781 °/min
Orbital period
93.08 mins
BSTAR
0.00035717
Loading maneuver chart data...
Computing Atmospheric mass density...
Loading historical data...
Loading historical data...
Loading historical data...
Loading historical data...
Loading historical data...
Loading historical data...
Loading historical data...

Documentation

Showing up to 5 results
|